TimeEST,TemperatureF,Dew PointF,Humidity,Sea Level PressureIn,VisibilityMPH,Wind Direction,Wind SpeedMPH,Gust SpeedMPH,PrecipitationIn,Events,Conditions,WindDirDegrees,DateUTC
12:53 AM,-9.0,-18.0,65,29.56,10.0,WNW,11.5,-,N/A,,Clear,290,2012-02-13 05:53:00
1:53 AM,-9.0,-17.0,68,29.56,10.0,WNW,13.8,-,N/A,,Partly Cloudy,290,2012-02-13 06:53:00
2:53 AM,-9.0,-17.0,68,29.56,10.0,West,13.8,-,N/A,,Partly Cloudy,270,2012-02-13 07:53:00
3:14 AM,-9.4,-16.6,71,29.48,7.0,West,16.1,-,N/A,,Mostly Cloudy,280,2012-02-13 08:14:00
3:53 AM,-9.9,-16.1,74,29.57,8.0,West,12.7,-,N/A,,Overcast,280,2012-02-13 08:53:00
4:10 AM,-9.4,-16.6,71,29.48,7.0,WNW,13.8,-,N/A,,Mostly Cloudy,290,2012-02-13 09:10:00
4:23 AM,-9.4,-16.6,71,29.49,10.0,West,10.4,-,N/A,,Mostly Cloudy,270,2012-02-13 09:23:00
4:30 AM,-9.4,-16.6,71,29.49,10.0,West,12.7,-,N/A,,Scattered Clouds,280,2012-02-13 09:30:00
4:53 AM,-9.9,-16.1,74,29.56,10.0,West,15.0,23.0,N/A,,Clear,270,2012-02-13 09:53:00
5:53 AM,-11.0,-17.0,75,29.57,10.0,NNW,4.6,-,N/A,,Clear,330,2012-02-13 10:53:00
6:53 AM,-13.0,-18.0,78,29.59,10.0,West,9.2,-,N/A,,Clear,270,2012-02-13 11:53:00
7:53 AM,-11.0,-18.0,71,29.62,10.0,West,11.5,-,N/A,,Clear,280,2012-02-13 12:53:00
8:53 AM,-8.0,-18.9,59,29.63,10.0,WNW,16.1,21.9,N/A,,Clear,300,2012-02-13 13:53:00
9:53 AM,-6.0,-20.0,51,29.64,9.0,WNW,21.9,28.8,N/A,,Clear,290,2012-02-13 14:53:00
10:53 AM,-2.9,-20.0,44,29.65,10.0,West,19.6,27.6,N/A,,Clear,280,2012-02-13 15:53:00
11:53 AM,-2.0,-18.9,45,29.65,10.0,WNW,18.4,28.8,N/A,,Clear,290,2012-02-13 16:53:00
12:53 PM,-0.0,-18.0,43,29.66,10.0,West,17.3,29.9,N/A,,Clear,280,2012-02-13 17:53:00
1:53 PM,1.0,-18.0,41,29.68,10.0,West,21.9,28.8,N/A,,Clear,280,2012-02-13 18:53:00
2:53 PM,1.9,-18.9,37,29.70,10.0,WNW,23.0,28.8,N/A,,Clear,290,2012-02-13 19:53:00
3:53 PM,1.9,-18.0,39,29.72,10.0,West,17.3,23.0,N/A,,Clear,280,2012-02-13 20:53:00
4:53 PM,-0.0,-18.9,41,29.74,10.0,West,11.5,-,N/A,,Clear,280,2012-02-13 21:53:00
5:53 PM,-0.9,-18.0,44,29.78,10.0,West,11.5,-,N/A,,Clear,280,2012-02-13 22:53:00
6:53 PM,-0.9,-18.0,44,29.80,10.0,West,11.5,-,N/A,,Clear,280,2012-02-13 23:53:00
7:53 PM,-0.0,-17.0,45,29.82,10.0,WNW,13.8,-,N/A,,Clear,300,2012-02-14 00:53:00
8:53 PM,-2.9,-18.0,49,29.84,10.0,WNW,6.9,-,N/A,,Clear,300,2012-02-14 01:53:00
9:53 PM,-2.9,-17.0,51,29.86,10.0,WNW,9.2,-,N/A,,Clear,290,2012-02-14 02:53:00
10:53 PM,-5.1,-18.0,54,29.87,10.0,West,6.9,-,N/A,,Clear,280,2012-02-14 03:53:00
11:53 PM,-5.1,-18.0,54,29.89,10.0,West,4.6,-,N/A,,Clear,260,2012-02-14 04:53:00